RYR3WPD LGTS-EIDW

Flight info

Callsign RYR3WPD
Flight time N/A
Altitude 34000
Route FSK UL608 DISOR DCT LONTA UL608 DOLEV DCT IRDIV/N0439F360 DCT PETOV DCT RENKA L610 STAUB/N0370F240 L610 UPALA/N0442F360 Z744 COSJE DCT ADKUV DCT BUB L608 COA L179 KEGIT L608 SASKI L179 SAWPE/N0363F240 Q63 OZZIL N80 ARPAK L9 NICXI M17 VATRY VATRY4L
Aircraft B738/M-SDE2E3FGHIRWXY/LB1

Departure

Time N/A
Airport Thessaloniki Macedonia International Airport (LGTS)

Arrival

Time 2026-05-06 23:36
Airport Dublin Airport (EIDW)
Time Latitude Longitude Altitude Speed Heading
2026-05-06 21:34 48.55856 13.53301 33882 ft 467 kts 308°
2026-05-06 21:34 48.57958 13.49635 33900 ft 457 kts 299°
2026-05-06 21:34 48.60850 13.41299 33892 ft 443 kts 284°
2026-05-06 21:35 48.62889 13.32507 33897 ft 443 kts 283°
2026-05-06 21:35 48.64946 13.23737 33879 ft 445 kts 284°
2026-05-06 21:36 48.67057 13.14907 33885 ft 446 kts 284°
2026-05-06 21:36 48.69167 13.06062 33885 ft 447 kts 284°
2026-05-06 21:37 48.71248 12.97248 33892 ft 448 kts 284°
2026-05-06 21:37 48.73340 12.88338 33891 ft 448 kts 284°
2026-05-06 21:38 48.75426 12.79427 33892 ft 449 kts 284°
2026-05-06 21:38 48.77515 12.70472 33893 ft 451 kts 284°
2026-05-06 21:39 48.79599 12.61497 33891 ft 451 kts 284°
2026-05-06 21:39 48.81669 12.52518 33894 ft 452 kts 284°
2026-05-06 21:40 48.83744 12.43486 33889 ft 453 kts 284°
2026-05-06 21:40 48.85812 12.34448 33889 ft 454 kts 284°
2026-05-06 21:41 48.87870 12.25422 33889 ft 455 kts 284°
2026-05-06 21:41 48.90339 12.16503 33893 ft 461 kts 291°
2026-05-06 21:42 48.93301 12.07817 33871 ft 463 kts 292°
2026-05-06 21:42 48.96266 11.99124 33875 ft 463 kts 292°
2026-05-06 21:43 48.99182 11.90375 33873 ft 464 kts 291°
2026-05-06 21:43 49.02079 11.81578 33871 ft 464 kts 291°
2026-05-06 21:44 49.04971 11.72766 33868 ft 465 kts 291°
2026-05-06 21:44 49.07844 11.63986 33872 ft 465 kts 291°
2026-05-06 21:45 49.10735 11.55124 33869 ft 466 kts 291°
2026-05-06 21:45 49.13623 11.46244 33873 ft 467 kts 291°
2026-05-06 21:46 49.16504 11.37331 33874 ft 467 kts 291°
2026-05-06 21:46 49.19356 11.28473 33874 ft 468 kts 291°
2026-05-06 21:47 49.22186 11.19495 33860 ft 467 kts 289°
2026-05-06 21:47 49.24707 11.10323 33870 ft 467 kts 287°
2026-05-06 21:48 49.27164 11.01107 33870 ft 468 kts 288°
2026-05-06 21:48 49.29661 10.91881 33878 ft 469 kts 288°
2026-05-06 21:49 49.32170 10.82648 33886 ft 470 kts 288°
2026-05-06 21:49 49.34910 10.73584 33875 ft 476 kts 298°
2026-05-06 21:50 49.38787 10.65250 33885 ft 480 kts 302°
2026-05-06 21:50 49.42139 10.58346 33876 ft 481 kts 302°
2026-05-06 21:51 49.46077 10.50097 33860 ft 482 kts 302°
2026-05-06 21:51 49.50008 10.41724 33864 ft 483 kts 301°
2026-05-06 21:52 49.53929 10.33318 33866 ft 483 kts 301°
2026-05-06 21:52 49.57848 10.24892 33860 ft 484 kts 301°
2026-05-06 21:53 49.61744 10.16497 33858 ft 484 kts 301°
2026-05-06 21:53 49.65660 10.08032 33854 ft 484 kts 301°
2026-05-06 21:54 49.69571 9.99553 33853 ft 484 kts 301°
2026-05-06 21:54 49.73029 9.90696 33853 ft 477 kts 289°
2026-05-06 21:55 49.75540 9.81272 33843 ft 476 kts 288°
2026-05-06 21:55 49.78003 9.71754 33851 ft 477 kts 288°
2026-05-06 21:56 49.80499 9.62248 33854 ft 477 kts 288°
2026-05-06 21:56 49.83018 9.52741 33852 ft 477 kts 288°
2026-05-06 21:57 49.85539 9.43224 33849 ft 477 kts 288°
2026-05-06 21:57 49.87959 9.33670 33856 ft 475 kts 285°
2026-05-06 21:58 49.89987 9.23932 33860 ft 473 kts 283°
2026-05-06 21:58 49.91913 9.14217 33859 ft 473 kts 283°
2026-05-06 21:59 49.93875 9.04478 33859 ft 473 kts 284°
2026-05-06 21:59 49.95866 8.94729 33872 ft 472 kts 284°
2026-05-06 22:00 49.97854 8.85008 33876 ft 471 kts 284°
2026-05-06 22:00 49.99818 8.75363 33879 ft 471 kts 284°
2026-05-06 22:01 50.01779 8.65671 33886 ft 470 kts 284°
2026-05-06 22:01 50.03729 8.55984 33887 ft 469 kts 285°
2026-05-06 22:02 50.05670 8.46292 33886 ft 468 kts 285°
2026-05-06 22:02 50.07599 8.36614 33881 ft 467 kts 285°
2026-05-06 22:03 50.09517 8.26941 33885 ft 467 kts 285°
2026-05-06 22:03 50.11412 8.17339 33876 ft 466 kts 285°
2026-05-06 22:04 50.13307 8.07689 33875 ft 465 kts 285°
2026-05-06 22:04 50.15191 7.98042 33874 ft 465 kts 285°
2026-05-06 22:05 50.17065 7.88401 33878 ft 464 kts 285°
2026-05-06 22:05 50.18931 7.78755 33875 ft 464 kts 285°
2026-05-06 22:06 50.20788 7.69100 33880 ft 464 kts 285°
2026-05-06 22:06 50.22641 7.59421 33881 ft 464 kts 285°
2026-05-06 22:07 50.24472 7.49808 33888 ft 464 kts 285°
2026-05-06 22:07 50.26308 7.40121 33879 ft 465 kts 285°
2026-05-06 22:08 50.28137 7.30416 33890 ft 464 kts 285°
2026-05-06 22:08 50.29955 7.20726 33880 ft 464 kts 285°
2026-05-06 22:09 50.31768 7.11005 33894 ft 465 kts 285°
2026-05-06 22:09 50.33571 7.01290 33884 ft 465 kts 285°
2026-05-06 22:10 50.35355 6.91628 33886 ft 465 kts 284°
2026-05-06 22:10 50.37144 6.81887 33892 ft 465 kts 284°
2026-05-06 22:11 50.38923 6.72150 33895 ft 465 kts 284°
2026-05-06 22:11 50.40693 6.62409 33894 ft 465 kts 284°
2026-05-06 22:12 50.42455 6.52657 33900 ft 465 kts 284°
2026-05-06 22:12 50.44210 6.42895 33904 ft 465 kts 284°
2026-05-06 22:13 50.45956 6.33131 33913 ft 465 kts 284°
2026-05-06 22:13 50.47682 6.23424 33910 ft 465 kts 284°
2026-05-06 22:14 50.49411 6.13645 33921 ft 465 kts 284°
2026-05-06 22:14 50.51137 6.03834 33923 ft 465 kts 284°
2026-05-06 22:15 50.52856 5.94009 33930 ft 466 kts 284°
2026-05-06 22:15 50.54564 5.84190 33940 ft 466 kts 284°
2026-05-06 22:16 50.56264 5.74361 33938 ft 466 kts 284°
2026-05-06 22:16 50.57959 5.64511 33938 ft 466 kts 284°
2026-05-06 22:17 50.59644 5.54658 33939 ft 466 kts 284°
2026-05-06 22:17 50.61316 5.44831 33939 ft 466 kts 284°
2026-05-06 22:18 50.62985 5.34958 33938 ft 466 kts 284°
2026-05-06 22:18 50.64646 5.25085 33942 ft 466 kts 284°
2026-05-06 22:19 50.66296 5.15215 33945 ft 465 kts 284°
2026-05-06 22:19 50.67928 5.05399 33947 ft 465 kts 284°
2026-05-06 22:20 50.69561 4.95522 33956 ft 465 kts 284°
2026-05-06 22:20 50.71188 4.85616 33958 ft 466 kts 284°
2026-05-06 22:21 50.72804 4.75724 33961 ft 466 kts 283°
2026-05-06 22:21 50.74414 4.65811 33973 ft 466 kts 283°
2026-05-06 22:22 50.76016 4.55893 33970 ft 466 kts 283°
2026-05-06 22:22 50.77600 4.46019 33968 ft 466 kts 283°
2026-05-06 22:23 50.79185 4.36087 33968 ft 466 kts 283°
2026-05-06 22:23 50.80761 4.26150 33966 ft 466 kts 283°
2026-05-06 22:24 50.82330 4.16191 33974 ft 466 kts 283°
2026-05-06 22:24 50.83891 4.06227 33974 ft 466 kts 283°
2026-05-06 22:25 50.85432 3.96331 33975 ft 466 kts 283°
2026-05-06 22:25 50.86976 3.86355 33977 ft 466 kts 283°
2026-05-06 22:26 50.88509 3.76391 33982 ft 466 kts 283°
2026-05-06 22:26 50.90034 3.66414 33973 ft 466 kts 282°
2026-05-06 22:27 50.91550 3.56438 33978 ft 465 kts 282°
2026-05-06 22:27 50.93057 3.46455 33979 ft 465 kts 282°
2026-05-06 22:28 50.94546 3.36525 33983 ft 465 kts 282°
2026-05-06 22:28 50.96034 3.26545 33984 ft 465 kts 282°
2026-05-06 22:29 50.97512 3.16561 33988 ft 464 kts 282°
2026-05-06 22:29 50.98973 3.06638 33989 ft 464 kts 282°
2026-05-06 22:30 51.00433 2.96654 33995 ft 464 kts 282°
2026-05-06 22:30 51.01882 2.86677 33992 ft 463 kts 281°
2026-05-06 22:31 51.03325 2.76685 33994 ft 463 kts 281°
2026-05-06 22:31 51.04754 2.66717 33993 ft 462 kts 281°
2026-05-06 22:32 51.06167 2.56802 33998 ft 462 kts 281°
2026-05-06 22:32 51.07578 2.46826 33998 ft 462 kts 281°
2026-05-06 22:33 51.08982 2.36842 34012 ft 461 kts 281°
2026-05-06 22:33 51.10374 2.26874 34010 ft 461 kts 281°
2026-05-06 22:34 51.11747 2.16978 34016 ft 461 kts 281°
2026-05-06 22:34 51.13121 2.07003 34015 ft 461 kts 281°
2026-05-06 22:35 51.14487 1.97025 34019 ft 460 kts 280°
2026-05-06 22:35 51.15844 1.87039 34012 ft 460 kts 280°
2026-05-06 22:36 51.17182 1.77130 34020 ft 460 kts 280°
2026-05-06 22:36 51.18520 1.67156 34012 ft 459 kts 280°
2026-05-06 22:37 51.19847 1.57193 34015 ft 459 kts 280°
2026-05-06 22:37 51.21165 1.47221 34007 ft 459 kts 280°
2026-05-06 22:38 51.22474 1.37257 34012 ft 459 kts 280°
2026-05-06 22:38 51.23554 1.28971 34010 ft 459 kts 280°
2026-05-06 22:39 51.25056 1.17377 34023 ft 458 kts 280°
2026-05-06 22:39 51.26132 1.09015 34014 ft 458 kts 279°
2026-05-06 22:40 51.27398 0.99102 34019 ft 458 kts 279°
2026-05-06 22:40 51.28847 0.89174 34015 ft 460 kts 287°
2026-05-06 22:41 51.32204 0.74795 34023 ft 461 kts 289°
2026-05-06 22:42 51.34475 0.65205 34023 ft 461 kts 289°
2026-05-06 22:42 51.36694 0.55587 34028 ft 461 kts 288°
2026-05-06 22:43 51.38873 0.45995 34023 ft 461 kts 288°
2026-05-06 22:43 51.41052 0.36337 34039 ft 461 kts 288°
2026-05-06 22:44 51.43227 0.26656 34049 ft 461 kts 288°
2026-05-06 22:44 51.45392 0.16981 34051 ft 461 kts 288°
2026-05-06 22:45 51.47551 0.07290 34052 ft 460 kts 288°
2026-05-06 22:45 51.49698 -0.02393 34139 ft 457 kts 289°
2026-05-06 22:46 51.51776 -0.11806 34050 ft 445 kts 289°
2026-05-06 22:46 51.53838 -0.21191 34052 ft 445 kts 289°
2026-05-06 22:47 51.55894 -0.30589 34047 ft 446 kts 289°
2026-05-06 22:47 51.57947 -0.40018 34048 ft 446 kts 289°
2026-05-06 22:48 51.59977 -0.49384 34051 ft 446 kts 289°
2026-05-06 22:48 51.62016 -0.58839 34049 ft 447 kts 289°
2026-05-06 22:49 51.64046 -0.68291 34050 ft 447 kts 289°
2026-05-06 22:49 51.66072 -0.77768 34052 ft 448 kts 289°
2026-05-06 22:50 51.68168 -0.87223 34043 ft 449 kts 294°
2026-05-06 22:50 51.71008 -0.96128 34045 ft 450 kts 298°
2026-05-06 22:51 51.73978 -1.05010 34051 ft 450 kts 298°
2026-05-06 22:51 51.76923 -1.13956 34049 ft 451 kts 297°
2026-05-06 22:52 51.79839 -1.22969 34050 ft 452 kts 297°
2026-05-06 22:52 51.82732 -1.31991 34052 ft 453 kts 297°
2026-05-06 22:53 51.85625 -1.41056 34046 ft 453 kts 297°
2026-05-06 22:53 51.88501 -1.50092 34049 ft 454 kts 297°
2026-05-06 22:54 51.91387 -1.59193 34053 ft 455 kts 297°
2026-05-06 22:54 51.94275 -1.68333 34051 ft 456 kts 297°
2026-05-06 22:55 51.97158 -1.77491 34052 ft 456 kts 298°
2026-05-06 22:55 52.00038 -1.86675 34054 ft 456 kts 298°
2026-05-06 22:56 52.02913 -1.95877 34050 ft 457 kts 298°
2026-05-06 22:56 52.05785 -2.05106 34057 ft 457 kts 298°
2026-05-06 22:57 52.08632 -2.14288 34051 ft 458 kts 298°
2026-05-06 22:57 52.11494 -2.23555 34051 ft 458 kts 298°
2026-05-06 22:58 52.14347 -2.32826 34047 ft 458 kts 298°
2026-05-06 22:58 52.17192 -2.42106 34048 ft 458 kts 298°
2026-05-06 22:59 52.20017 -2.51358 34045 ft 459 kts 298°
2026-05-06 22:59 52.22856 -2.60690 34044 ft 459 kts 298°
2026-05-06 23:00 52.25686 -2.70029 34047 ft 459 kts 298°
2026-05-06 23:00 52.28516 -2.79407 34035 ft 460 kts 298°
2026-05-06 23:01 52.31336 -2.88787 34039 ft 460 kts 298°
2026-05-06 23:01 52.34153 -2.98193 34047 ft 461 kts 298°
2026-05-06 23:02 52.36966 -3.07621 34034 ft 462 kts 298°
2026-05-06 23:02 52.39758 -3.17017 34036 ft 462 kts 298°
2026-05-06 23:03 52.42567 -3.26509 34027 ft 463 kts 298°
2026-05-06 23:03 52.45371 -3.36022 34021 ft 460 kts 298°
2026-05-06 23:03 52.46735 -3.40672 33999 ft 444 kts 298°
2026-05-06 23:04 52.48046 -3.45155 34006 ft 428 kts 298°
2026-05-06 23:04 52.49314 -3.49496 34009 ft 414 kts 298°
2026-05-06 23:04 52.50541 -3.53700 33833 ft 404 kts 298°
2026-05-06 23:04 52.51746 -3.57828 33589 ft 397 kts 298°
2026-05-06 23:05 52.52916 -3.61838 33214 ft 394 kts 298°
2026-05-06 23:05 52.54092 -3.65878 32873 ft 389 kts 298°
2026-05-06 23:05 52.55257 -3.69884 32505 ft 386 kts 298°
2026-05-06 23:05 52.56408 -3.73852 32145 ft 383 kts 298°
2026-05-06 23:06 52.57550 -3.77797 31787 ft 381 kts 298°
2026-05-06 23:06 52.58682 -3.81713 31438 ft 378 kts 298°
2026-05-06 23:06 52.59807 -3.85612 31089 ft 376 kts 298°
2026-05-06 23:06 52.60922 -3.89484 30742 ft 373 kts 298°
2026-05-06 23:07 52.62027 -3.93329 30401 ft 371 kts 298°
2026-05-06 23:07 52.63125 -3.97154 30067 ft 369 kts 297°
2026-05-06 23:07 52.64217 -4.00966 29656 ft 366 kts 297°
2026-05-06 23:07 52.65298 -4.04749 29320 ft 362 kts 297°
2026-05-06 23:08 52.66364 -4.08481 28953 ft 359 kts 297°
2026-05-06 23:08 52.67419 -4.12183 28618 ft 355 kts 297°
2026-05-06 23:08 52.68464 -4.15855 28262 ft 352 kts 297°
2026-05-06 23:08 52.69498 -4.19492 27910 ft 349 kts 297°
2026-05-06 23:09 52.70511 -4.23062 27577 ft 346 kts 297°
2026-05-06 23:09 52.71528 -4.26650 27227 ft 343 kts 297°
2026-05-06 23:09 52.72535 -4.30208 26895 ft 341 kts 296°
2026-05-06 23:09 52.73533 -4.33740 26557 ft 338 kts 296°
2026-05-06 23:10 52.74522 -4.37247 26226 ft 336 kts 296°
2026-05-06 23:10 52.75504 -4.40732 25904 ft 334 kts 296°
2026-05-06 23:10 52.76480 -4.44203 25572 ft 332 kts 296°
2026-05-06 23:10 52.77447 -4.47648 25245 ft 330 kts 296°
2026-05-06 23:11 52.78410 -4.51082 24927 ft 328 kts 296°
2026-05-06 23:11 52.79354 -4.54453 24611 ft 326 kts 296°
2026-05-06 23:11 52.80305 -4.57855 24290 ft 325 kts 296°
2026-05-06 23:11 52.81250 -4.61240 23971 ft 323 kts 296°
2026-05-06 23:12 52.82189 -4.64607 23652 ft 322 kts 295°
2026-05-06 23:12 52.83125 -4.67969 23289 ft 321 kts 295°
2026-05-06 23:12 52.84055 -4.71316 22933 ft 319 kts 295°
2026-05-06 23:12 52.84976 -4.74635 22622 ft 316 kts 295°
2026-05-06 23:13 52.85891 -4.77935 22292 ft 314 kts 295°
2026-05-06 23:13 52.86796 -4.81206 21979 ft 312 kts 295°
2026-05-06 23:13 52.87691 -4.84443 21667 ft 313 kts 295°
2026-05-06 23:13 52.88597 -4.87727 21359 ft 315 kts 295°
2026-05-06 23:14 52.89523 -4.91084 21049 ft 324 kts 295°
2026-05-06 23:14 52.90462 -4.94497 20713 ft 326 kts 295°
2026-05-06 23:14 52.91401 -4.97914 20383 ft 324 kts 294°
2026-05-06 23:14 52.92335 -5.01319 20046 ft 322 kts 294°
2026-05-06 23:15 52.93257 -5.04686 19716 ft 320 kts 294°
2026-05-06 23:15 52.94176 -5.08044 19403 ft 318 kts 294°
2026-05-06 23:15 52.95078 -5.11345 19093 ft 316 kts 294°
2026-05-06 23:15 52.95982 -5.14660 18774 ft 315 kts 294°
2026-05-06 23:16 52.96882 -5.17962 18455 ft 313 kts 294°
2026-05-06 23:16 52.97775 -5.21247 18121 ft 312 kts 294°
2026-05-06 23:16 52.98664 -5.24520 17767 ft 310 kts 294°
2026-05-06 23:16 52.99545 -5.27769 17448 ft 307 kts 293°
2026-05-06 23:17 53.00418 -5.30992 17134 ft 305 kts 293°
2026-05-06 23:17 53.01285 -5.34194 16830 ft 302 kts 293°
2026-05-06 23:17 53.02142 -5.37368 16510 ft 300 kts 293°
2026-05-06 23:17 53.02994 -5.40528 16208 ft 298 kts 293°
2026-05-06 23:18 53.03838 -5.43661 15902 ft 296 kts 293°
2026-05-06 23:18 53.04668 -5.46746 15599 ft 294 kts 292°
2026-05-06 23:18 53.05500 -5.49843 15299 ft 293 kts 292°
2026-05-06 23:18 53.06326 -5.52923 15004 ft 291 kts 292°
2026-05-06 23:19 53.07148 -5.55989 14704 ft 289 kts 292°
2026-05-06 23:19 53.07965 -5.59044 14409 ft 288 kts 292°
2026-05-06 23:19 53.08776 -5.62082 14116 ft 287 kts 292°
2026-05-06 23:19 53.09586 -5.65117 13819 ft 286 kts 292°
2026-05-06 23:20 53.10389 -5.68129 13490 ft 285 kts 292°
2026-05-06 23:20 53.11189 -5.71132 13167 ft 283 kts 291°
2026-05-06 23:20 53.11984 -5.74121 12875 ft 281 kts 291°
2026-05-06 23:20 53.12771 -5.77087 12586 ft 279 kts 291°
2026-05-06 23:21 53.13553 -5.80037 12294 ft 277 kts 291°
2026-05-06 23:21 53.14322 -5.82961 12054 ft 273 kts 291°
2026-05-06 23:21 53.15079 -5.85859 11770 ft 272 kts 291°
2026-05-06 23:21 53.15821 -5.88704 11491 ft 271 kts 291°
2026-05-06 23:22 53.16571 -5.91582 11203 ft 269 kts 291°
2026-05-06 23:22 53.17316 -5.94440 10919 ft 268 kts 291°
2026-05-06 23:22 53.18058 -5.97295 10632 ft 267 kts 291°
2026-05-06 23:22 53.18795 -6.00131 10356 ft 266 kts 291°
2026-05-06 23:23 53.19528 -6.02958 10120 ft 263 kts 291°
2026-05-06 23:23 53.20247 -6.05725 9985 ft 257 kts 291°
2026-05-06 23:23 53.20955 -6.08464 9683 ft 257 kts 291°
2026-05-06 23:23 53.21662 -6.11195 9383 ft 256 kts 291°
2026-05-06 23:24 53.22364 -6.13910 9115 ft 254 kts 291°
2026-05-06 23:24 53.23053 -6.16582 8849 ft 253 kts 291°
2026-05-06 23:24 53.23748 -6.19282 8573 ft 252 kts 291°
2026-05-06 23:24 53.24439 -6.21965 8314 ft 251 kts 291°
2026-05-06 23:25 53.25125 -6.24640 8038 ft 249 kts 291°
2026-05-06 23:25 53.25810 -6.27306 7784 ft 248 kts 291°
2026-05-06 23:25 53.26257 -6.29054 7604 ft 248 kts 291°
2026-05-06 23:25 53.27160 -6.32577 7311 ft 244 kts 291°
2026-05-06 23:26 53.27599 -6.34292 7248 ft 240 kts 291°
2026-05-06 23:26 53.28469 -6.37699 7114 ft 241 kts 291°
2026-05-06 23:26 53.29127 -6.40281 7011 ft 242 kts 291°
2026-05-06 23:26 53.29782 -6.42848 6828 ft 238 kts 291°
2026-05-06 23:27 53.30423 -6.45367 6649 ft 234 kts 291°
2026-05-06 23:27 53.30851 -6.47049 6533 ft 231 kts 291°
2026-05-06 23:27 53.31472 -6.49491 6361 ft 227 kts 291°
2026-05-06 23:27 53.32083 -6.51896 6177 ft 223 kts 291°
2026-05-06 23:28 53.32675 -6.54227 6003 ft 218 kts 291°
2026-05-06 23:28 53.33263 -6.56545 5836 ft 215 kts 291°
2026-05-06 23:28 53.33843 -6.58834 5697 ft 211 kts 291°
2026-05-06 23:28 53.34410 -6.61077 5549 ft 209 kts 291°
2026-05-06 23:29 53.34978 -6.63327 5375 ft 210 kts 290°
2026-05-06 23:29 53.35544 -6.65572 5204 ft 210 kts 290°
2026-05-06 23:29 53.36164 -6.67786 5039 ft 212 kts 303°
2026-05-06 23:29 53.37347 -6.69228 4841 ft 216 kts 345°
2026-05-06 23:30 53.38843 -6.69278 4708 ft 216 kts
2026-05-06 23:30 53.40354 -6.69026 4500 ft 219 kts
2026-05-06 23:30 53.41864 -6.68764 4303 ft 216 kts 10°
2026-05-06 23:30 53.43165 -6.67745 4087 ft 207 kts 45°
2026-05-06 23:31 53.43918 -6.65806 3994 ft 196 kts 75°
2026-05-06 23:31 53.44032 -6.63587 3995 ft 191 kts 92°
2026-05-06 23:31 53.44017 -6.61344 3972 ft 193 kts 94°
2026-05-06 23:31 53.43932 -6.59083 3840 ft 196 kts 97°
2026-05-06 23:32 53.43811 -6.56803 3578 ft 195 kts 98°
2026-05-06 23:32 53.43682 -6.54555 3316 ft 192 kts 98°
2026-05-06 23:32 53.43555 -6.52338 3061 ft 190 kts 98°
2026-05-06 23:32 53.43432 -6.50181 2804 ft 181 kts 98°
2026-05-06 23:33 53.43317 -6.48158 2615 ft 165 kts 98°
2026-05-06 23:33 53.43211 -6.46295 2366 ft 158 kts 99°
2026-05-06 23:33 53.43105 -6.44448 2149 ft 160 kts 99°
2026-05-06 23:33 53.42999 -6.42592 1942 ft 159 kts 100°
2026-05-06 23:34 53.42888 -6.40751 1748 ft 159 kts 101°
2026-05-06 23:34 53.42777 -6.38932 1543 ft 159 kts 98°
2026-05-06 23:34 53.42699 -6.37087 1335 ft 159 kts 98°
2026-05-06 23:34 53.42590 -6.35265 1087 ft 156 kts 98°
2026-05-06 23:35 53.42480 -6.33466 803 ft 154 kts 97°
2026-05-06 23:35 53.42392 -6.31696 596 ft 152 kts 98°
2026-05-06 23:35 53.42293 -6.29923 386 ft 152 kts 97°
2026-05-06 23:35 53.42198 -6.28166 222 ft 149 kts 97°
2026-05-06 23:36 53.42112 -6.26635 210 ft 88 kts 95°
2026-05-06 23:36 53.42074 -6.25943 213 ft 47 kts 95°
2026-05-06 23:36 53.42056 -6.25553 210 ft 24 kts 84°
2026-05-06 23:36 53.42106 -6.25376 212 ft 15 kts 61°
2026-05-06 23:37 53.42155 -6.25224 210 ft 14 kts 61°
2026-05-06 23:37 53.42226 -6.25135 213 ft 14 kts 348°
2026-05-06 23:37 53.42313 -6.25194 210 ft 13 kts 336°
2026-05-06 23:37 53.42396 -6.25254 212 ft 13 kts 336°
2026-05-06 23:38 53.42477 -6.25313 211 ft 12 kts 336°
2026-05-06 23:38 53.42556 -6.25370 214 ft 12 kts 337°
2026-05-06 23:38 53.42632 -6.25425 215 ft 12 kts 337°
2026-05-06 23:38 53.42706 -6.25478 214 ft 12 kts 337°
2026-05-06 23:39 53.42783 -6.25534 212 ft 14 kts 336°
2026-05-06 23:39 53.42875 -6.25600 218 ft 15 kts 336°
2026-05-06 23:39 53.42970 -6.25670 216 ft 16 kts 336°
2026-05-06 23:39 53.43069 -6.25739 212 ft 15 kts 339°
2026-05-06 23:40 53.43142 -6.25649 214 ft 15 kts 67°
2026-05-06 23:40 53.43158 -6.25587 216 ft 4 kts 67°
2026-05-06 23:40 53.43172 -6.25532 220 ft 7 kts 67°
2026-05-06 23:40 53.43194 -6.25443 213 ft 9 kts 67°
2026-05-06 23:41 53.43220 -6.25342 214 ft 9 kts 67°
2026-05-06 23:41 53.43229 -6.25237 210 ft 9 kts 94°
2026-05-06 23:41 53.43224 -6.25129 213 ft 10 kts 94°
2026-05-06 23:41 53.43178 -6.25081 210 ft 9 kts 189°
2026-05-06 23:42 53.43137 -6.25087 210 ft 5 kts 184°
2026-05-06 23:42 53.43126 -6.25088 210 ft 0 kts 184°